Litchfield, MN

10:05 AM CDT on May 25, 2018 (GMT -0500)
Litchfield Municipal

Weather History for KLJF - December, 2012

Change the Weather History Date:

Thursday, December 13, 2012

  Actual Average Record
Temperature  
Mean Temperature 22 °F -  
Max Temperature 30 °F 27 °F 48 °F (2014)
Min Temperature 15 °F 10 °F -21 °F (1985)
Degree Days  
Heating Degree Days 42    
Moisture  
Dew Point 21 °F    
Average Humidity 95    
Maximum Humidity 100    
Minimum Humidity 80    
Precipitation  
Precipitation 0.00 in - - ()
Sea Level Pressure  
Sea Level Pressure 29.99 in    
Wind  
Wind Speed 2 mph (North)    
Max Wind Speed 9 mph    
Max Gust Speed -    
Visibility 7 miles    
Events Fog    
Averages and records for this station are not official NWS values.
T = Trace of Precipitation, MM = Missing Value Source: NWS Daily Summary

Daily Weather History Graph

Daily Weather History Graph

Search for Another Location

Airport or City:

Astronomy

Dec. 13, 2012 Rise Set
Actual Time 7:48 AM CST 4:36 PM CST
Civil Twilight 7:14 AM CST 5:10 PM CST
Nautical Twilight 6:37 AM CST 5:47 PM CST
Astronomical Twilight 6:01 AM CST 6:23 PM CST
Moon 7:57 AM CST (12/13) 5:20 PM CST (12/13)
Length of Visible Light 9h 55m
Length of Day
8h 47m
New Moon, 0% of the Moon is Illuminated
Dec 13
New Moon
Dec 19
First Quarter
Dec 28
Full
Jan 4
Last Quarter
Jan 11
New

Hourly Weather History & Observations

Time (CST) Temp. Windchill Dew Point Humidity Pressure Visibility Wind Dir Wind Speed Gust Speed Precip Events Conditions
12:13 AM 24.8 °F - 24.8 °F 100% 29.88 in 10.0 mi Calm Calm - N/A   Clear
12:33 AM 24.8 °F - 24.8 °F 100% 29.87 in 10.0 mi Calm Calm - N/A   Clear
12:53 AM 24.8 °F - 24.8 °F 100% 29.88 in 10.0 mi Calm Calm - N/A   Unknown
1:13 AM 24.8 °F - 24.8 °F 100% 29.87 in 10.0 mi Calm Calm - N/A   Clear
1:33 AM 21.2 °F - 21.2 °F 100% 29.87 in 10.0 mi Calm Calm - N/A   Clear
1:53 AM 23.0 °F - 23.0 °F 100% 29.87 in 10.0 mi Calm Calm - N/A   Clear
2:13 AM 24.8 °F - 21.2 °F 86% 29.87 in 10.0 mi Calm Calm - N/A   Clear
2:33 AM 24.8 °F - 24.8 °F 100% 29.88 in 10.0 mi Calm Calm - N/A   Clear
2:53 AM 26.6 °F - 23.0 °F 86% 29.87 in 10.0 mi Calm Calm - N/A   Clear
3:13 AM 21.2 °F - 19.4 °F 93% 29.87 in 10.0 mi Calm Calm - N/A   Clear
3:33 AM 21.2 °F - 21.2 °F 100% 29.87 in 10.0 mi Calm Calm - N/A   Clear
3:53 AM 19.4 °F - 19.4 °F 100% 29.88 in 10.0 mi Calm Calm - N/A   Clear
4:13 AM 17.6 °F - 17.6 °F 100% 29.88 in 10.0 mi Calm Calm - N/A   Clear
4:33 AM 19.4 °F - 19.4 °F 100% 29.89 in 10.0 mi Calm Calm - N/A   Clear
4:53 AM 19.4 °F - 19.4 °F 100% 29.89 in 10.0 mi Calm Calm - N/A   Clear
5:13 AM 19.4 °F - 19.4 °F 100% 29.90 in 10.0 mi Calm Calm - N/A   Clear
5:33 AM 21.2 °F - 21.2 °F 100% 29.90 in 10.0 mi Calm Calm - N/A   Clear
5:53 AM 19.4 °F - 19.4 °F 100% 29.92 in 10.0 mi Calm Calm - N/A   Clear
6:13 AM 19.4 °F - 19.4 °F 100% 29.92 in 10.0 mi Calm Calm - N/A   Clear
6:33 AM 17.6 °F - 17.6 °F 100% 29.92 in 7.0 mi Calm Calm - N/A   Clear
6:53 AM 17.6 °F 9.3 °F 17.6 °F 100% 29.93 in 7.0 mi NNW 5.8 mph - N/A   Clear
7:13 AM 17.6 °F 12.3 °F 17.6 °F 100% 29.94 in 5.0 mi North 3.5 mph - N/A   Clear
7:33 AM 17.6 °F 12.3 °F 17.6 °F 100% 29.94 in 4.0 mi North 3.5 mph - N/A   Clear
7:53 AM 17.6 °F - 17.6 °F 100% 29.94 in 4.0 mi Calm Calm - N/A   Clear
8:13 AM 17.6 °F 12.3 °F 17.6 °F 100% 29.95 in 5.0 mi North 3.5 mph - N/A   Clear
8:33 AM 19.4 °F 11.5 °F 19.4 °F 100% 29.96 in 7.0 mi North 5.8 mph - N/A   Clear
8:53 AM 21.2 °F 16.4 °F 21.2 °F 100% 29.97 in 7.0 mi North 3.5 mph - N/A   Clear
9:13 AM 21.2 °F 12.6 °F 21.2 °F 100% 29.98 in 7.0 mi North 6.9 mph - N/A   Clear
9:33 AM 23.0 °F 14.7 °F 23.0 °F 100% 29.98 in 7.0 mi NNE 6.9 mph - N/A   Clear
9:53 AM 24.8 °F 15.3 °F 24.8 °F 100% 29.99 in 7.0 mi NNE 9.2 mph - N/A   Clear
10:13 AM 26.6 °F 18.2 °F 24.8 °F 93% 30.00 in 7.0 mi NNE 8.1 mph - N/A   Clear
10:33 AM 26.6 °F 17.5 °F 24.8 °F 93% 30.01 in 7.0 mi NNE 9.2 mph - N/A   Clear
10:53 AM 28.4 °F 19.7 °F 24.8 °F 86% 30.01 in 7.0 mi NNE 9.2 mph - N/A   Clear
11:13 AM 28.4 °F 20.4 °F 24.8 °F 86% 30.01 in 7.0 mi NNE 8.1 mph - N/A   Clear
11:33 AM 28.4 °F 22.2 °F 24.8 °F 86% 30.01 in 7.0 mi NE 5.8 mph - N/A   Clear
11:53 AM 28.4 °F 21.2 °F 24.8 °F 86% 30.01 in 7.0 mi NNE 6.9 mph - N/A   Clear
12:13 PM 30.2 °F 24.3 °F 24.8 °F 80% 30.01 in 7.0 mi NE 5.8 mph - N/A   Clear
12:33 PM 30.2 °F 26.7 °F 24.8 °F 80% 30.01 in 7.0 mi NE 3.5 mph - N/A   Clear
12:53 PM 30.2 °F 26.7 °F 24.8 °F 80% 30.02 in 7.0 mi NNE 3.5 mph - N/A   Clear
1:13 PM 30.2 °F 23.4 °F 26.6 °F 86% 30.02 in 7.0 mi North 6.9 mph - N/A   Clear
1:33 PM 30.2 °F 24.3 °F 26.6 °F 86% 30.02 in 7.0 mi NNW 5.8 mph - N/A   Clear
1:53 PM 30.2 °F 22.6 °F 26.6 °F 86% 30.03 in 7.0 mi NNW 8.1 mph - N/A   Clear
2:14 PM 30.2 °F 22.6 °F 26.6 °F 86% 30.03 in 7.0 mi NW 8.1 mph - N/A   Clear
2:33 PM 30.2 °F 22.6 °F 26.6 °F 86% 30.03 in 7.0 mi NW 8.1 mph - N/A   Clear
2:53 PM 30.2 °F 22.6 °F 26.6 °F 86% 30.04 in 7.0 mi NNW 8.1 mph - N/A   Clear
3:14 PM 30.2 °F 21.9 °F 24.8 °F 80% 30.04 in 7.0 mi North 9.2 mph - N/A   Clear
3:33 PM 28.4 °F 19.7 °F 24.8 °F 86% 30.04 in 7.0 mi NNW 9.2 mph - N/A   Clear
3:53 PM 28.4 °F 21.2 °F 24.8 °F 86% 30.05 in 7.0 mi NNW 6.9 mph - N/A   Clear
4:14 PM 26.6 °F 20.0 °F 23.0 °F 86% 30.05 in 7.0 mi NNW 5.8 mph - N/A   Clear
4:33 PM 23.0 °F 15.8 °F 21.2 °F 93% 30.05 in 7.0 mi North 5.8 mph - N/A   Clear
7:13 PM 19.4 °F - 19.4 °F 100% 30.09 in 2.5 mi Calm Calm - N/A   Clear
7:33 PM 19.4 °F - 19.4 °F 100% 30.10 in 4.0 mi Calm Calm - N/A   Clear
7:53 PM 19.4 °F - 19.4 °F 100% 30.09 in 3.0 mi Calm Calm - N/A   Clear
8:13 PM 19.4 °F - 19.4 °F 100% 30.09 in 1.0 mi Calm Calm - N/A   Mist
8:33 PM 17.6 °F - 17.6 °F 100% 30.09 in 0.5 mi Calm Calm - N/A Fog Light Freezing Fog
8:53 PM 17.6 °F - 17.6 °F 100% 30.10 in 4.0 mi Calm Calm - N/A   Scattered Clouds
9:13 PM 17.6 °F - 17.6 °F 100% 30.10 in 3.0 mi Calm Calm - N/A   Clear
9:33 PM 17.6 °F - 17.6 °F 100% 30.11 in 2.5 mi Calm Calm - N/A   Clear
9:53 PM 17.6 °F - 17.6 °F 100% 30.11 in 3.0 mi Calm Calm - N/A   Clear
10:13 PM 17.6 °F - 17.6 °F 100% 30.11 in 2.5 mi Calm Calm - N/A   Clear
10:33 PM 17.6 °F - 17.6 °F 100% 30.10 in 1.8 mi Calm Calm - N/A   Mist
10:53 PM 15.8 °F - 15.8 °F 100% 30.10 in 3.0 mi Calm Calm - N/A   Clear
11:13 PM 17.6 °F - 17.6 °F 100% 30.11 in 3.0 mi Calm Calm - N/A   Clear
11:33 PM 17.6 °F - 17.6 °F 100% 30.11 in 3.0 mi Calm Calm - N/A   Clear
11:53 PM 17.6 °F - 15.8 °F 93% 30.11 in 3.0 mi Calm Calm - N/A   Clear